Regional Weather Roundup
Issued by NWS Little Rock, AR

Home | Current Version | Previous Version | Text Only | Print | Product List | Glossary Off
Versions: 1 2 3 4 5 6 7 8 9 10 11 12 13 14 15 16 17 18 19 20 21 22 23 24 25 26 27 28 29 30 31 32 33 34 35 36 37 38 39 40 41 42 43 44 45 46 47 48 49 50

000
ASUS44 KLZK 241905
RWRLZK

WEATHER ROUNDUP FOR ARKANSAS
NATIONAL WEATHER SERVICE LITTLE ROCK AR
200 PM CDT THU JUL 24 2014

NOTE: "FAIR" INDICATES FEW OR NO CLOUDS BELOW 12,000 FEET WITH NO
SIGNIFICANT WEATHER AND/OR OBSTRUCTIONS TO VISIBILITY.

ARZ001-003-010-029-242000-
NORTHWEST ARKANSAS

CITY           SKY/WX    TMP DP  RH WIND       PRES   REMARKS
FAYETTEVILLE   CLOUDY    79  70  74 CALM      30.11F
FORT SMITH     PTSUNNY   84  70  62 SE8       30.07F HX  88
HARRISON       SUNNY     79  62  56 VRB6      30.13F
BENTONVILLE    PTSUNNY   82  66  57 SW5       30.11F HX  85
ROGERS         MOSUNNY   84  64  50 E6        30.11F HX  85
SILOAM SPGS    MOSUNNY   81  66  61 S5        30.12F
HIGHFILL       PTSUNNY   83  70  64 VRB6      30.10F HX  87
$$

ARZ004-005-016-242000-
NORTH CENTRAL ARKANSAS

CITY           SKY/WX    TMP DP  RH WIND       PRES   REMARKS
BATESVILLE     SUNNY     81  61  50 W7        30.08S
FLIPPIN        SUNNY     79  59  50 NE7       30.11F
MTN HOME       SUNNY     79  61  53 NE3       30.10F
$$

ARZ040-041-242000-
WEST CENTRAL ARKANSAS

CITY           SKY/WX    TMP DP  RH WIND       PRES   REMARKS
MENA           PTSUNNY   84  73  70 CALM      30.09F HX  91
MOUNT IDA      MOSUNNY   82  70  66 VRB3      30.07F HX  86
$$

ARZ009-017-025-026-028-242000-
NORTHEAST ARKANSAS

CITY           SKY/WX    TMP DP  RH WIND       PRES   REMARKS
CORNING          N/A     79  57  47 NE10G16   30.08F
JONESBORO      SUNNY     79  55  43 N10       30.07F
NEWPORT        SUNNY     79  60  51 NE8       30.09F
WALNUT RIDGE   SUNNY     79  59  50 N6        30.07F
BLYTHEVILLE    SUNNY     79  65  62 N12       30.06F
NW BLYTHEVILLE SUNNY     77  57  50 N13G20    30.06F
$$

ARZ022-023-033-042-044-242000-
CENTRAL ARKANSAS

CITY           SKY/WX    TMP DP  RH WIND       PRES   REMARKS
LITTLE ROCK    MOSUNNY   82  66  58 CALM      30.06F
N LITTLE ROCK  MOSUNNY   81  71  71 N7        30.06F HX  85
JACKSONVILLE   SUNNY     82  66  57 VRB1      30.07F HX  85
SEARCY         SUNNY     81  64  55 N5        30.08F
HOT SPRINGS    PTSUNNY   81  70  69 CALM      30.08F
RUSSELLVILLE   PTSUNNY   82  70  66 CALM      30.07F HX  86
CLINTON        FAIR      82  64  54 CALM      30.09F
$$

ARZ036-242000-
EAST ARKANSAS

CITY           SKY/WX    TMP DP  RH WIND       PRES   REMARKS
WEST MEMPHIS   SUNNY     80  60  50 N9G17     30.05F
$$

ARZ050-053-066-070-073-242000-
SOUTHWEST ARKANSAS

CITY           SKY/WX    TMP DP  RH WIND       PRES   REMARKS
ARKADELPHIA    FAIR      80  73  79 NE6       30.07S HAZE
CAMDEN         MOSUNNY   84  70  61 NE3       30.04F HX  88
TEXARKANA      CLOUDY    76  70  82 E5        30.06F
EL DORADO      PTSUNNY   86  73  65 N8        30.04F HX  93
DE QUEEN       MOSUNNY   83  72  69 VRB5      30.04F HX  88
$$

ARZ056-057-069-242000-
SOUTHEAST ARKANSAS

CITY           SKY/WX    TMP DP  RH WIND       PRES   REMARKS
PINE BLUFF     CLOUDY    78  71  79 N7        30.06F
STUTTGART      MOSUNNY   81  66  61 NE10      30.07S
MONTICELLO     PTSUNNY   84  72  67 VRB6      30.03F HX  89

$$





USA.gov is the U.S. government's official web portal to all federal, state and local government web resources and services.